Aiguafreda





Hora UTC 21:45
Temperatura 8.3 ºC
Sòl 15 cm 7.3 ºC
Humitat 90.9 %
Pressió 1014.1 hPa
Pluja 0.1 mm
Velocitat vent 2.8 km/h
Direcció vent E
Radiació solar 0.3 W/m²

Dades diàries 2020-03-31



Hora UTC (hivern +1h; estiu +2h)
Temperatura (ºC) Humitat (%) Pressió (hPa) Velocitat vent (km/h) Precipitació (mm) Radiació solar (W/m²)
Hora UTC Aire Sòl 15 cm Humitat Pressió Vel. Dir. Vel. Max Dir. Intent. màx 5 min. Rad. Sol.
00:05 6.5 6.0 93.8 1012.8 0.0 NNE 0.0 NW 0.0 0.3
00:10 6.4 6.0 93.9 1012.7 0.0 NNE 0.0 W 0.0 0.3
00:15 6.5 6.0 94.1 1012.7 0.0 NNE 0.0 SW 0.0 0.3
00:20 6.5 6.0 94.4 1012.8 0.0 NNE 0.0 SW 0.0 0.3
00:25 6.5 6.0 94.4 1012.8 0.0 NNE 0.0 WNW 0.0 0.3
00:30 6.4 5.9 94.1 1012.7 0.0 W 3.4 W 0.0 0.3
00:35 6.4 5.9 94.1 1012.7 0.0 NNE 0.0 SSW 0.0 0.3
00:40 6.4 5.9 94.3 1012.7 0.0 NNE 0.0 ENE 0.0 0.3
00:45 6.4 5.9 94.5 1012.6 0.0 NNE 0.0 ESE 0.0 0.3
00:50 6.4 6.0 94.5 1012.6 0.2 SSE 3.4 SSE 0.0 0.3
00:55 6.4 6.0 94.6 1012.6 0.0 NNE 0.0 SSE 0.0 0.3
01:00 6.4 5.9 94.7 1012.5 0.0 NNE 0.0 E 0.0 0.3
01:05 6.4 5.9 94.6 1012.5 0.2 ESE 3.4 ESE 0.0 0.3
01:10 6.4 5.9 94.6 1012.4 0.0 NNE 0.0 E 0.0 0.3
01:15 6.4 6.0 94.7 1012.4 0.0 NNE 0.0 E 0.0 0.3
01:20 6.4 6.0 94.7 1012.3 0.0 NNE 0.0 SE 0.0 0.3
01:25 6.4 6.0 94.6 1012.2 0.0 NNE 0.0 SE 0.0 0.3
01:30 6.4 5.9 94.5 1012.2 0.0 NNE 0.0 NE 0.0 0.3
01:35 6.4 5.9 94.5 1012.1 0.0 NNE 0.0 SE 0.0 0.3
01:40 6.4 5.9 94.5 1012.2 0.0 NNE 0.0 N 0.0 0.3
01:45 6.4 5.9 94.4 1012.1 0.0 NNE 0.0 SE 0.0 0.3
01:50 6.4 5.9 94.3 1012.1 0.2 SE 3.4 SE 0.0 0.3
01:55 6.5 5.9 94.3 1012.0 0.0 NNE 0.0 NW 0.0 0.3
02:00 6.5 5.9 94.1 1011.9 0.0 NNE 0.0 ENE 0.0 0.3
02:05 6.5 5.9 94.0 1011.9 0.0 NNE 0.0 E 0.0 0.3
02:10 6.5 5.9 93.8 1011.9 0.0 NE 3.4 NE 0.0 0.3
02:15 6.5 5.9 93.8 1011.9 0.0 NNE 0.0 NE 0.0 0.3
02:20 6.5 5.9 93.7 1011.9 0.0 NNE 0.0 NNE 0.0 0.3
02:25 6.5 6.0 93.7 1012.0 0.1 ESE 3.4 E 0.0 0.3
02:30 6.5 6.0 93.7 1011.9 0.0 S 3.4 S 0.0 0.3
02:35 6.6 6.1 94.0 1012.0 0.0 SE 3.4 SE 0.0 0.3
02:40 6.7 6.1 93.9 1012.0 0.0 NNE 0.0 SE 0.0 0.3
02:45 6.7 6.1 94.0 1012.0 0.0 NNE 0.0 SE 0.0 0.3
02:50 6.7 6.1 94.0 1012.0 0.0 NNE 0.0 SW 0.0 0.3
02:55 6.7 6.1 94.0 1011.9 0.0 NNE 0.0 WNW 0.0 0.3
03:00 6.7 6.1 93.8 1011.8 0.0 NNE 0.0 WNW 0.0 0.3
03:05 6.8 6.2 94.1 1011.8 0.0 NNE 0.0 WNW 0.0 0.3
03:10 6.8 6.2 94.2 1011.9 0.0 NNE 0.0 SSW 0.0 0.3
03:15 6.7 6.2 94.3 1011.9 0.0 NNE 0.0 SW 0.0 0.3
03:20 6.8 6.2 94.4 1011.8 0.0 NNE 0.0 WSW 0.0 0.3
03:25 6.8 6.2 94.4 1011.8 0.0 NNE 0.0 WSW 0.0 0.3
03:30 6.8 6.2 94.4 1011.8 0.0 NNE 0.0 ESE 0.0 0.3
03:35 6.8 6.2 94.5 1011.7 0.0 NNE 0.0 SSE 0.0 0.3
03:40 6.8 6.2 94.6 1011.8 0.3 SE 3.4 SE 0.0 0.3
03:45 6.8 6.3 94.6 1011.9 0.0 NNE 0.0 SSE 0.0 0.3
03:50 6.8 6.3 94.7 1012.0 0.1 E 3.4 E 0.0 0.3
03:55 6.8 6.3 94.8 1012.0 0.0 NNE 0.0 SE 0.0 0.2
04:00 6.8 6.3 94.8 1012.1 0.0 NNE 0.0 ENE 0.0 0.3
04:05 6.8 6.3 94.8 1012.2 0.0 NNE 0.0 E 0.0 0.3
04:10 6.8 6.2 94.7 1012.0 0.0 NNE 0.0 ESE 0.0 0.3
04:15 6.8 6.2 94.6 1012.1 0.0 NNE 0.0 ENE 0.0 0.3
04:20 6.8 6.2 94.6 1012.1 0.0 NNE 0.0 ENE 0.0 0.3
04:25 6.8 6.2 94.6 1012.0 0.0 NNE 0.0 ESE 0.0 0.3
04:30 6.8 6.2 94.6 1012.0 0.0 NNE 0.0 N 0.0 0.3
04:35 6.8 6.2 94.5 1012.0 0.0 NNE 0.0 ESE 0.0 0.3
04:40 6.8 6.2 94.5 1012.0 0.0 NNE 0.0 ENE 0.0 0.3
04:45 6.8 6.3 94.5 1012.0 0.0 NNE 0.0 S 0.0 0.3
04:50 6.8 6.3 94.5 1011.9 0.0 NNE 0.0 S 0.0 0.3
04:55 6.8 6.3 94.5 1011.8 0.0 NNE 0.0 S 0.0 0.3
05:00 6.9 6.3 94.6 1011.7 0.0 ESE 3.4 ESE 0.0 0.3
05:05 6.8 6.2 94.2 1011.7 0.0 NNE 0.0 ESE 0.0 0.3
05:10 6.8 6.3 94.3 1011.6 0.0 NNE 0.0 NE 0.0 0.3
05:15 6.8 6.2 94.1 1011.7 0.2 NE 6.1 NE 0.0 0.3
05:20 6.8 6.2 93.9 1011.7 0.2 ESE 3.4 ESE 0.0 0.3
05:25 6.8 6.2 93.8 1011.8 1.1 ESE 6.1 ESE 0.0 0.5
05:30 6.8 6.2 93.6 1011.8 1.6 ESE 6.1 ESE 0.0 0.8
05:35 6.8 6.2 93.3 1012.0 2.7 ESE 6.1 ESE 0.0 1.1
05:40 6.8 6.2 92.9 1012.2 1.0 ESE 6.1 ESE 0.0 1.9
05:45 6.8 6.1 92.4 1012.2 2.5 E 6.1 E 0.0 3.8
05:50 6.8 6.2 92.4 1012.3 0.3 E 6.1 ENE 0.0 6.2
05:55 6.9 6.2 92.3 1012.4 0.6 E 6.1 ESE 0.0 12.8
06:00 6.9 6.2 92.1 1012.5 0.5 ENE 6.1 NE 0.0 15.1
06:05 6.9 6.3 92.2 1012.7 0.6 ESE 6.1 ESE 0.0 15.2
06:10 7.0 6.3 92.1 1012.6 0.0 NNE 0.0 SE 0.0 19.5
06:15 7.0 6.3 91.8 1012.7 0.1 ENE 3.4 ENE 0.0 18.8
06:20 7.0 6.4 92.0 1012.7 0.2 NNE 3.4 NNE 0.0 24.3
06:25 7.0 6.5 91.9 1012.7 1.1 ENE 8.8 NE 0.0 36.0
06:30 7.1 6.6 91.9 1012.7 0.1 NNE 3.4 NNE 0.0 37.5
06:35 7.1 6.6 91.5 1012.7 0.0 NNE 0.0 ESE 0.0 38.5
06:40 7.2 6.7 91.2 1012.7 0.1 ESE 3.4 ESE 0.0 48.4
06:45 7.2 6.8 90.5 1012.7 0.0 NNE 0.0 NE 0.0 53.4
06:50 7.3 6.8 90.0 1012.6 1.0 ESE 6.1 E 0.0 58.4
06:55 7.3 6.8 89.7 1012.6 1.5 ENE 11.5 E 0.0 62.0
07:00 7.4 7.0 89.6 1012.6 0.4 NE 6.1 ENE 0.0 78.1
07:05 7.5 7.1 89.2 1012.7 0.4 ESE 6.1 ESE 0.0 90.6
07:10 7.6 7.2 88.7 1012.6 3.3 SE 8.8 ESE 0.0 105.6
07:15 7.7 7.3 88.2 1012.5 1.2 SE 6.1 SE 0.0 119.5
07:20 7.8 7.5 87.7 1012.6 1.4 SSE 6.1 ESE 0.0 129.4
07:25 8.0 7.6 87.2 1012.6 1.3 SE 6.1 SE 0.0 137.7
07:30 8.0 7.8 86.6 1012.4 3.1 SE 8.8 SSE 0.0 148.3
07:35 8.2 7.9 86.5 1012.5 5.9 SE 11.5 ESE 0.0 156.4
07:40 8.3 8.2 86.2 1012.5 3.1 SE 8.8 SE 0.0 167.3
07:45 8.4 8.3 85.4 1012.7 2.0 SE 6.1 SE 0.0 195.5
07:50 8.6 8.6 85.0 1012.7 4.0 ESE 8.8 E 0.0 182.3
07:55 8.7 8.8 83.7 1012.8 2.9 ESE 11.5 ENE 0.0 166.8
08:00 8.6 8.7 83.2 1012.6 3.1 SE 8.8 S 0.0 148.5
08:05 8.6 8.8 83.5 1012.8 2.7 SSE 8.8 SSE 0.0 136.9
08:10 8.6 8.8 83.0 1012.8 3.3 S 11.5 S 0.0 124.5
08:15 8.7 8.8 83.4 1012.7 1.7 SSE 6.1 S 0.0 106.9
08:20 8.8 8.9 83.6 1012.6 0.9 SE 6.1 SE 0.0 120.1
08:25 8.8 9.1 83.7 1012.6 2.6 E 8.8 ENE 0.0 177.2
08:30 9.0 9.5 84.0 1012.8 2.5 SE 6.1 SE 0.0 209.8
08:35 9.2 9.7 83.1 1012.8 1.6 SSE 6.1 SSE 0.0 176.9
08:40 9.3 9.7 82.6 1012.8 2.5 SSE 6.1 E 0.0 129.9
08:45 9.3 9.6 82.5 1012.8 3.4 SSE 8.8 SE 0.0 95.6
08:50 9.2 9.4 83.5 1012.8 2.7 SE 6.1 SSW 0.0 70.9
08:55 9.2 9.4 83.9 1012.8 0.9 SE 6.1 ESE 0.0 80.3
09:00 9.2 9.4 84.5 1012.8 3.1 SE 6.1 SE 0.0 97.9
09:05 9.2 9.4 84.7 1012.7 1.4 SE 6.1 SE 0.0 109.4
09:10 9.2 9.5 84.9 1012.8 0.5 SE 3.4 ESE 0.0 122.2
09:15 9.3 9.5 84.3 1012.7 2.0 SE 6.1 SSE 0.0 130.8
09:20 9.3 9.5 83.3 1012.7 2.7 SSE 11.5 ESE 0.0 133.9
09:25 9.4 9.5 83.1 1012.7 0.5 S 6.1 SW 0.0 122.8
09:30 9.6 9.8 84.0 1012.7 0.8 SSE 6.1 SE 0.0 117.5
09:35 9.7 9.9 84.0 1012.7 1.0 SSE 6.1 SSE 0.0 112.8
09:40 9.7 9.8 82.8 1012.7 1.8 SSW 6.1 S 0.0 106.4
09:45 9.7 9.8 82.8 1012.7 2.6 SE 6.1 SE 0.0 96.7
09:50 9.7 9.8 83.3 1012.6 1.2 E 6.1 ESE 0.0 117.3
09:55 9.8 9.9 83.3 1012.5 2.8 SE 6.1 SE 0.0 130.1
10:00 9.8 9.9 83.3 1012.7 0.2 SE 3.4 SSE 0.0 130.0
10:05 10.0 10.1 83.5 1012.6 0.2 SSE 3.4 SE 0.0 124.6
10:10 10.1 10.2 83.1 1012.7 0.3 E 6.1 E 0.0 131.9
10:15 10.2 10.3 82.8 1012.7 0.3 SE 3.4 ENE 0.0 148.0
10:20 10.3 10.5 83.2 1012.7 2.3 E 8.8 ENE 0.0 154.1
10:25 10.3 10.5 82.5 1012.6 1.0 ESE 6.1 ESE 0.0 146.7
10:30 10.4 10.7 82.7 1012.6 1.5 ESE 6.1 SE 0.0 148.0
10:35 10.5 10.8 82.4 1012.6 0.8 E 6.1 E 0.0 152.9
10:40 10.6 11.0 82.2 1012.4 2.4 ESE 8.8 ESE 0.0 163.4
10:45 10.6 11.0 81.0 1012.3 3.6 SE 8.8 SE 0.0 171.2
10:50 10.7 11.1 81.1 1012.5 3.7 SSE 8.8 SE 0.0 189.7
10:55 10.8 11.3 81.1 1012.5 2.1 SSE 8.8 SW 0.0 199.8
11:00 10.9 11.5 80.3 1012.4 4.1 SSE 8.8 SSE 0.0 212.6
11:05 11.0 11.7 79.7 1012.4 5.3 SSE 11.5 SE 0.0 234.2
11:10 11.1 12.0 80.4 1012.4 4.9 SE 11.5 SSE 0.1 234.7
11:15 11.2 12.0 79.4 1012.4 3.6 SE 8.8 SE 0.0 230.4
11:20 11.3 12.2 79.6 1012.2 4.2 SE 11.5 SE 0.0 255.9
11:25 11.4 12.4 78.6 1012.3 5.1 SE 11.5 SE 0.0 245.4
11:30 11.5 12.3 78.4 1012.2 4.0 SE 8.8 SE 0.0 220.1
11:35 11.5 12.4 78.3 1012.2 3.6 SE 11.5 NNE 0.0 205.6
11:40 11.4 12.1 78.1 1012.0 4.0 ESE 11.5 E 0.0 208.3
11:45 11.4 12.0 78.3 1012.2 4.3 SE 14.2 SSW 0.0 208.7
11:50 11.5 12.1 78.6 1012.1 3.7 ESE 11.5 E 0.0 222.2
11:55 11.5 12.3 77.4 1012.2 2.9 SSE 14.2 SSW 0.0 253.8
12:00 11.6 12.4 77.3 1012.0 5.1 SE 8.8 SE 0.0 204.9
12:05 11.7 12.4 77.4 1012.2 4.2 SE 8.8 ENE 0.0 207.8
12:10 11.8 12.7 76.7 1012.2 3.7 SSE 8.8 SSE 0.0 281.1
12:15 12.0 13.0 75.9 1012.2 4.1 SW 8.8 SSW 0.0 247.0
12:20 12.2 13.1 75.6 1012.2 4.5 SSW 8.8 SSW 0.0 200.2
12:25 12.2 13.0 74.9 1012.3 3.6 S 8.8 SSE 0.0 189.7
12:30 12.2 13.1 74.5 1012.3 1.7 SSE 8.8 SE 0.0 180.2
12:35 12.2 13.0 74.4 1012.4 3.4 S 8.8 S 0.0 184.3
12:40 12.2 12.9 74.5 1012.4 3.7 S 8.8 SE 0.0 183.9
12:45 12.2 12.9 74.4 1012.4 2.3 SE 6.1 S 0.0 161.7
12:50 12.2 12.9 75.3 1012.3 2.6 SE 8.8 SE 0.0 145.8
12:55 12.2 12.7 75.6 1012.4 1.4 ESE 8.8 E 0.0 127.7
13:00 12.1 12.5 75.1 1012.3 1.4 NNW 8.8 WSW 0.0 110.7
13:05 12.0 12.3 76.7 1012.4 0.7 ESE 3.4 ESE 0.0 111.9
13:10 11.9 12.2 78.0 1012.3 1.1 ESE 6.1 ESE 0.0 122.4
13:15 11.9 12.1 77.7 1012.3 1.8 SSE 6.1 S 0.0 138.2
13:20 11.9 12.2 77.2 1012.3 1.8 SE 6.1 SE 0.0 201.1
13:25 12.0 12.5 78.3 1012.2 1.1 SSE 6.1 SW 0.0 245.9
13:30 12.2 12.8 78.3 1012.2 2.7 E 8.8 ESE 0.0 263.9
13:35 12.5 13.0 78.3 1012.2 1.4 ENE 8.8 ENE 0.0 219.6
13:40 12.6 13.0 76.8 1012.0 1.0 ESE 6.1 NNE 0.0 151.6
13:45 12.6 12.9 76.7 1012.1 3.7 SE 8.8 SE 0.0 110.8
13:50 12.5 12.7 76.5 1011.9 1.9 SE 8.8 SSE 0.0 86.5
13:55 12.3 12.5 77.0 1011.8 1.0 NE 6.1 ENE 0.0 79.5
14:00 12.2 12.4 76.5 1011.8 0.9 E 6.1 NNE 0.0 82.0
14:05 12.2 12.3 75.9 1011.8 1.9 SE 6.1 SE 0.0 83.7
14:10 12.1 12.2 75.7 1011.8 0.4 SE 6.1 SE 0.0 86.7
14:15 12.1 12.3 77.4 1011.6 0.6 ESE 6.1 ESE 0.0 89.6
14:20 12.2 12.2 78.5 1011.9 1.0 SE 6.1 SE 0.0 84.7
14:25 12.2 12.1 78.7 1011.9 0.7 SE 3.4 SE 0.0 76.6
14:30 12.1 12.0 79.0 1011.9 0.0 NNE 0.0 SE 0.0 65.9
14:35 12.2 12.0 82.5 1012.0 0.6 SE 6.1 SE 0.0 55.4
14:40 12.0 11.9 84.5 1012.2 0.0 NNE 0.0 SSE 0.0 59.9
14:45 11.8 11.7 84.5 1012.2 0.8 WSW 6.1 W 0.0 60.4
14:50 11.5 11.3 81.7 1012.2 4.2 SSW 8.8 SW 0.0 60.4
14:55 11.4 11.1 80.8 1012.1 5.0 W 14.2 NW 0.0 54.6
15:00 11.2 10.8 82.9 1012.2 4.0 N 11.5 WNW 0.0 49.2
15:05 10.9 10.6 84.2 1012.2 6.8 NNW 11.5 NNW 0.0 46.2
15:10 10.8 10.4 86.5 1012.2 3.1 WNW 8.8 N 0.0 49.2
15:15 10.8 10.4 88.6 1012.2 2.0 WNW 8.8 NW 0.0 52.9
15:20 10.7 10.4 88.6 1012.3 1.2 NW 8.8 WNW 0.0 58.1
15:25 10.8 10.5 89.2 1012.3 3.8 NNW 6.1 WNW 0.0 59.2
15:30 10.7 10.5 89.6 1012.3 2.7 NNW 6.1 NNW 0.0 57.9
15:35 10.6 10.3 89.0 1012.1 3.9 N 8.8 NNW 0.0 55.9
15:40 10.6 10.3 89.6 1012.1 2.1 N 8.8 NNW 0.0 54.2
15:45 10.5 10.2 89.5 1012.2 1.6 NNW 6.1 WNW 0.0 49.6
15:50 10.5 10.2 89.3 1012.1 1.3 N 8.8 NNE 0.0 41.4
15:55 10.4 10.0 88.7 1012.2 1.5 NNE 8.8 NNW 0.0 32.1
16:00 10.3 9.9 88.4 1012.1 2.2 N 6.1 NNW 0.0 28.7
16:05 10.2 9.8 87.7 1012.1 3.4 NNW 11.5 WNW 0.0 25.8
16:10 10.2 9.7 86.6 1012.2 2.7 NW 8.8 NNW 0.0 21.5
16:15 10.2 9.6 87.1 1012.2 3.9 NNW 8.8 NW 0.0 19.4
16:20 10.1 9.5 87.0 1012.1 3.1 NNE 8.8 NE 0.0 17.9
16:25 10.1 9.5 86.5 1012.2 0.0 NNE 0.0 N 0.0 16.6
16:30 10.1 9.5 86.1 1012.2 1.1 WNW 6.1 WSW 0.0 15.8
16:35 10.2 9.4 86.0 1012.2 3.2 NNE 8.8 NE 0.0 15.1
16:40 10.2 9.4 85.9 1012.4 0.2 S 6.1 N 0.0 14.6
16:45 10.2 9.4 86.7 1012.3 2.4 NNE 8.8 NNE 0.0 14.7
16:50 10.1 9.3 87.3 1012.4 1.0 N 6.1 NW 0.0 14.4
16:55 10.0 9.3 88.1 1012.4 2.1 N 8.8 N 0.0 13.7
17:00 10.0 9.2 88.5 1012.3 0.6 NE 6.1 NE 0.0 12.9
17:05 9.9 9.2 88.9 1012.5 0.7 W 6.1 ENE 0.0 12.6
17:10 9.8 9.1 89.0 1012.5 0.7 WNW 6.1 NW 0.0 12.3
17:15 9.8 9.1 89.3 1012.6 0.2 SE 3.4 SSW 0.0 12.3
17:20 9.7 9.0 90.3 1012.5 0.2 NNE 3.4 N 0.0 12.0
17:25 9.6 9.0 90.9 1012.5 0.8 NE 6.1 NE 0.0 10.4
17:30 9.6 8.9 91.4 1012.7 1.6 NW 8.8 NW 0.0 8.9
17:35 9.5 8.8 91.1 1012.8 0.7 NW 6.1 WNW 0.0 6.9
17:40 9.5 8.8 91.2 1012.8 1.3 NNE 6.1 WNW 0.0 5.6
17:45 9.4 8.7 91.5 1012.8 0.0 NNE 0.0 ENE 0.0 5.2
17:50 9.4 8.7 92.2 1012.8 0.8 NE 6.1 NNE 0.0 4.7
17:55 9.2 8.6 92.3 1013.0 0.9 NE 6.1 NNE 0.0 4.0
18:00 9.2 8.5 92.5 1013.0 0.5 S 6.1 S 0.0 3.4
18:05 9.1 8.4 92.6 1013.0 0.0 NNE 0.0 ENE 0.0 2.7
18:10 9.1 8.4 93.0 1013.1 0.9 WNW 6.1 WNW 0.0 1.9
18:15 9.0 8.4 92.9 1013.1 3.2 NW 8.8 NNW 0.0 1.1
18:20 9.0 8.3 92.8 1013.3 4.6 NNW 11.5 W 0.0 0.7
18:25 9.0 8.3 92.5 1013.3 1.8 NNW 8.8 N 0.0 0.5
18:30 8.9 8.2 92.5 1013.2 3.6 N 8.8 N 0.0 0.4
18:35 8.8 8.1 92.8 1013.3 6.1 NE 11.5 ENE 0.0 0.3
18:40 8.8 8.1 92.9 1013.4 4.3 NE 11.5 NNE 0.0 0.3
18:45 8.8 8.1 93.0 1013.4 5.5 N 14.2 NNW 0.0 0.3
18:50 8.7 8.0 92.9 1013.4 3.5 NNE 8.8 NNE 0.0 0.3
18:55 8.8 8.0 93.1 1013.4 3.5 ENE 11.5 NE 0.0 0.3
19:00 8.7 8.0 93.1 1013.5 2.0 ENE 8.8 ENE 0.0 0.3
19:05 8.7 8.0 93.5 1013.5 0.1 NNE 3.4 N 0.0 0.3
19:10 8.7 8.0 93.6 1013.7 0.7 E 3.4 ESE 0.0 0.3
19:15 8.7 8.0 93.7 1013.6 4.5 NNW 11.5 NNW 0.0 0.3
19:20 8.7 7.9 93.7 1013.7 1.9 N 8.8 NNW 0.0 0.3
19:25 8.7 7.9 93.0 1013.7 0.5 NNW 6.1 WSW 0.0 0.3
19:30 8.7 7.9 92.7 1013.6 2.0 WSW 8.8 SW 0.0 0.3
19:35 8.7 7.8 92.2 1013.7 1.1 ENE 6.1 SE 0.0 0.3
19:40 8.7 7.8 91.9 1013.7 1.3 E 8.8 E 0.0 0.3
19:45 8.7 7.8 91.5 1013.7 0.9 NE 6.1 NE 0.0 0.3
19:50 8.7 7.7 91.3 1013.7 1.9 NE 11.5 ENE 0.0 0.3
19:55 8.6 7.7 90.8 1013.8 1.8 SE 6.1 ESE 0.0 0.3
20:00 8.6 7.7 91.0 1013.9 1.5 ENE 8.8 ENE 0.0 0.3
20:05 8.5 7.6 91.0 1013.8 3.4 ENE 11.5 ESE 0.0 0.3
20:10 8.5 7.6 91.3 1014.0 0.4 ENE 8.8 E 0.0 0.3
20:15 8.4 7.5 91.2 1013.9 0.8 SE 6.1 SE 0.0 0.3
20:20 8.4 7.5 91.3 1014.0 1.1 ESE 6.1 SE 0.0 0.3
20:25 8.4 7.5 91.5 1014.1 0.5 ESE 6.1 ESE 0.0 0.3
20:30 8.4 7.5 91.4 1014.0 1.6 ESE 6.1 SSE 0.0 0.3
20:35 8.4 7.5 91.3 1014.1 1.2 SE 8.8 S 0.0 0.3
20:40 8.5 7.5 91.1 1014.1 1.0 SSE 6.1 E 0.0 0.3
20:45 8.5 7.5 91.2 1014.1 1.0 SE 3.4 S 0.0 0.3
20:50 8.4 7.5 91.0 1014.1 1.0 S 6.1 SE 0.0 0.3
20:55 8.5 7.5 90.9 1014.1 3.0 SE 8.8 SSE 0.0 0.3
21:00 8.4 7.4 90.2 1014.1 0.3 S 6.1 SW 0.0 0.3
21:05 8.5 7.4 90.4 1014.1 0.1 NE 6.1 E 0.0 0.3
21:10 8.4 7.4 90.5 1014.2 0.4 ESE 3.4 SSE 0.0 0.3
21:15 8.3 7.3 90.8 1014.2 0.1 ESE 3.4 ESE 0.0 0.3
21:20 8.3 7.3 91.0 1014.2 1.6 ESE 6.1 SE 0.0 0.3
21:25 8.3 7.3 91.3 1014.2 1.3 ESE 8.8 ESE 0.0 0.3
21:30 8.3 7.3 91.6 1014.2 0.3 ESE 6.1 ESE 0.0 0.3
21:35 8.2 7.3 91.5 1014.2 1.7 ENE 6.1 ENE 0.0 0.3
21:40 8.2 7.3 91.3 1014.2 1.9 E 6.1 NE 0.0 0.3
21:45 8.3 7.3 90.9 1014.1 2.8 E 8.8 ESE 0.0 0.3
Màxima 12.6 13.1 94.8 1014.2 6.8 NNW 14.2 NNW 0.1 281.1
Mínima 6.4 5.9 74.4 1011.6
Total 0.1